Location: Monfort
(47.1967°N, 0.2115°W)
Time: 04:33:44
(UTC+00:00)

USA 308 - Pass Details

Date: 24 October 2020
Orbit: 571 x 578 km, 54.0° (Epoch: 30 November)

Event Time Altitude Azimuth Distance (km) Brightness Sun altitude
Rises 18:28:26 0° 295° (WNW) 2,788 7.6 -16.2°
Reaches altitude 10° 18:30:50 10° 304° (WNW) 1,886 6.4 -16.6°
Maximum altitude 18:34:50 37° 12° (NNE) 896 3.7 -17.3°
Enters shadow 18:36:10 30° 52° (NE) 1,050 3.8 -17.5°
